Location: Unspecified
(0.0000°N, 0.0000°E)
Time: 14:58:01
(UTC+00:00)

AO-7 - Pass Details

Date: 29 September 2021
Orbit: 1439 x 1459 km, 101.9° (Epoch: 25 October)

Event Time Altitude Azimuth Distance (km) Brightness Sun altitude
Rises 04:05:00 0° 8° (N) 4,520 ? -26.3°
Reaches altitude 10° 04:07:48 10° 5° (N) 3,542 ? -25.6°
Maximum altitude 04:15:54 62° 286° (WNW) 1,589 ? -23.6°
Drops below altitude 10° 04:24:03 10° 207° (SSW) 3,552 ? -21.6°
Sets 04:26:52 0° 204° (SSW) 4,533 ? -20.9°
